Location: Gu�tanj
(46.5431°N, 14.9692°E)
Time: 21:40:27
(UTC+00:00)

Cosmos 1943 Rocket - Pass Details

Date: 03 March 2021
Orbit: 811 x 844 km, 71.0° (Epoch: 22 April)

Event Time Altitude Azimuth Distance (km) Brightness Sun altitude
Rises 20:44:14 0° 336° (NNW) 3,414 6.1 -38.9°
Reaches altitude 10° 20:46:47 10° 342° (NNW) 2,474 5.2 -39.3°
Enters shadow 20:48:28 20° 349° (NNW) 1,886 4.4 -39.5°
